contact:dominique.lefevre@mio.osupytheas.fr, maurice.libes@osupytheas.fr, didier.mallarino@osupytheas.fr
Project:EMSO http://www.emso-fr.org/EMSO-France
Depth: 2436.0 m
Title:EMSO Ligure Ouest : Data MII capteur MICROCAT
DateTime_Computer,Latitude,Longitude,Temperature,Conductivity,Pressure,DateTime_Instrument
DateTime_Computer,Latitude,Longitude,degC,S m-1,dbar,DateTime_Instrument
2021-09-16T00:01:26Z,42.805,6.029,13.2989,4.60014,2470.46,2021-9-16T02:02:47Z
2021-09-16T00:04:29Z,42.805,6.029,13.2990,4.60016,2470.474,2021-9-16T02:05:50Z
2021-09-16T00:07:32Z,42.805,6.029,13.2993,4.60011,2470.474,2021-9-16T02:08:53Z
2021-09-16T00:10:35Z,42.805,6.029,13.2986,4.60016,2470.437,2021-9-16T02:11:56Z
2021-09-16T00:13:38Z,42.805,6.029,13.2993,4.60022,2470.46,2021-9-16T02:15:00Z
2021-09-16T00:16:42Z,42.805,6.029,13.2990,4.60014,2470.474,2021-9-16T02:18:03Z
2021-09-16T00:19:45Z,42.805,6.029,13.2990,4.60019,2470.45,2021-9-16T02:21:06Z
2021-09-16T00:22:48Z,42.805,6.029,13.2992,4.60017,2470.483,2021-9-16T02:24:09Z
2021-09-16T00:25:51Z,42.805,6.029,13.2990,4.60019,2470.483,2021-9-16T02:27:12Z
2021-09-16T00:28:54Z,42.805,6.029,13.2985,4.60009,2470.474,2021-9-16T02:30:15Z
2021-09-16T00:31:57Z,42.805,6.029,13.2989,4.60012,2470.474,2021-9-16T02:33:18Z
2021-09-16T00:35:00Z,42.805,6.029,13.2988,4.60013,2470.437,2021-9-16T02:36:21Z
2021-09-16T00:38:03Z,42.805,6.029,13.2990,4.60010,2470.437,2021-9-16T02:39:25Z
2021-09-16T00:41:07Z,42.805,6.029,13.2985,4.60013,2470.474,2021-9-16T02:42:28Z
2021-09-16T00:44:10Z,42.805,6.029,13.2996,4.60019,2470.46,2021-9-16T02:45:31Z
2021-09-16T00:47:13Z,42.805,6.029,13.2993,4.60008,2470.483,2021-9-16T02:48:34Z
2021-09-16T00:50:16Z,42.805,6.029,13.2997,4.60021,2470.46,2021-9-16T02:51:37Z
2021-09-16T00:53:19Z,42.805,6.029,13.2991,4.60016,2470.46,2021-9-16T02:54:40Z
2021-09-16T00:56:22Z,42.805,6.029,13.2990,4.60020,2470.46,2021-9-16T02:57:43Z
2021-09-16T00:59:25Z,42.805,6.029,13.2993,4.60016,2470.46,2021-9-16T03:00:46Z
2021-09-16T01:02:28Z,42.805,6.029,13.2993,4.60014,2470.483,2021-9-16T03:03:49Z
2021-09-16T01:05:32Z,42.805,6.029,13.2996,4.60021,2470.497,2021-9-16T03:06:53Z
2021-09-16T01:08:35Z,42.805,6.029,13.2992,4.60009,2470.474,2021-9-16T03:09:56Z
2021-09-16T01:11:38Z,42.805,6.029,13.2991,4.60014,2470.46,2021-9-16T03:12:59Z
2021-09-16T01:14:41Z,42.805,6.029,13.2989,4.60009,2470.483,2021-9-16T03:16:02Z
2021-09-16T01:17:44Z,42.805,6.029,13.2993,4.60012,2470.483,2021-9-16T03:19:05Z
2021-09-16T01:20:47Z,42.805,6.029,13.2991,4.60013,2470.46,2021-9-16T03:22:08Z
2021-09-16T01:23:50Z,42.805,6.029,13.2988,4.60015,2470.507,2021-9-16T03:25:11Z
2021-09-16T01:26:53Z,42.805,6.029,13.2991,4.60019,2470.483,2021-9-16T03:28:14Z
2021-09-16T01:29:57Z,42.805,6.029,13.2993,4.60021,2470.507,2021-9-16T03:31:18Z
2021-09-16T01:33:00Z,42.805,6.029,13.2995,4.60019,2470.497,2021-9-16T03:34:21Z
2021-09-16T01:36:03Z,42.805,6.029,13.2990,4.60018,2470.46,2021-9-16T03:37:24Z
2021-09-16T01:39:06Z,42.805,6.029,13.2995,4.60020,2470.483,2021-9-16T03:40:27Z
2021-09-16T01:42:09Z,42.805,6.029,13.2993,4.60015,2470.46,2021-9-16T03:43:30Z
2021-09-16T01:45:12Z,42.805,6.029,13.2988,4.60016,2470.46,2021-9-16T03:46:33Z
2021-09-16T01:48:15Z,42.805,6.029,13.2988,4.60019,2470.474,2021-9-16T03:49:36Z
2021-09-16T01:51:18Z,42.805,6.029,13.2991,4.60018,2470.474,2021-9-16T03:52:39Z
2021-09-16T01:54:22Z,42.805,6.029,13.2991,4.60014,2470.474,2021-9-16T03:55:43Z
2021-09-16T01:57:25Z,42.805,6.029,13.2991,4.60016,2470.46,2021-9-16T03:58:46Z
2021-09-16T02:00:28Z,42.805,6.029,13.2986,4.60009,2470.507,2021-9-16T04:01:49Z
2021-09-16T02:03:31Z,42.805,6.029,13.2993,4.60019,2470.483,2021-9-16T04:04:52Z
2021-09-16T02:06:34Z,42.805,6.029,13.2990,4.60019,2470.507,2021-9-16T04:07:55Z
2021-09-16T02:09:37Z,42.805,6.029,13.2996,4.60019,2470.507,2021-9-16T04:10:58Z
2021-09-16T02:12:40Z,42.805,6.029,13.2995,4.60019,2470.52,2021-9-16T04:14:01Z
2021-09-16T02:15:43Z,42.805,6.029,13.2998,4.60026,2470.483,2021-9-16T04:17:04Z
2021-09-16T02:18:46Z,42.805,6.029,13.2990,4.60017,2470.507,2021-9-16T04:20:08Z
2021-09-16T02:21:50Z,42.805,6.029,13.2991,4.60019,2470.474,2021-9-16T04:23:11Z
2021-09-16T02:24:53Z,42.805,6.029,13.2991,4.60016,2470.497,2021-9-16T04:26:14Z
2021-09-16T02:27:56Z,42.805,6.029,13.2992,4.60016,2470.483,2021-9-16T04:29:17Z
2021-09-16T02:30:59Z,42.805,6.029,13.2990,4.60019,2470.483,2021-9-16T04:32:20Z
2021-09-16T02:34:02Z,42.805,6.029,13.2991,4.60014,2470.52,2021-9-16T04:35:23Z
2021-09-16T02:37:05Z,42.805,6.029,13.2991,4.60015,2470.497,2021-9-16T04:38:26Z
2021-09-16T02:40:08Z,42.805,6.029,13.2990,4.60015,2470.483,2021-9-16T04:41:29Z
2021-09-16T02:43:11Z,42.805,6.029,13.2992,4.60017,2470.483,2021-9-16T04:44:33Z
2021-09-16T02:46:15Z,42.805,6.029,13.2991,4.60014,2470.497,2021-9-16T04:47:36Z
2021-09-16T02:49:18Z,42.805,6.029,13.2992,4.60016,2470.483,2021-9-16T04:50:39Z
2021-09-16T02:52:21Z,42.805,6.029,13.2991,4.60019,2470.52,2021-9-16T04:53:42Z
2021-09-16T02:55:24Z,42.805,6.029,13.2996,4.60020,2470.483,2021-9-16T04:56:45Z
2021-09-16T02:58:27Z,42.805,6.029,13.2991,4.60019,2470.507,2021-9-16T04:59:48Z
2021-09-16T03:01:30Z,42.805,6.029,13.2988,4.60016,2470.507,2021-9-16T05:02:51Z
2021-09-16T03:04:33Z,42.805,6.029,13.2992,4.60011,2470.483,2021-9-16T05:05:54Z
2021-09-16T03:07:36Z,42.805,6.029,13.2991,4.60017,2470.497,2021-9-16T05:08:58Z
2021-09-16T03:10:40Z,42.805,6.029,13.2989,4.60014,2470.507,2021-9-16T05:12:01Z
2021-09-16T03:13:43Z,42.805,6.029,13.2993,4.60021,2470.497,2021-9-16T05:15:04Z
2021-09-16T03:16:46Z,42.805,6.029,13.2990,4.60016,2470.483,2021-9-16T05:18:07Z
2021-09-16T03:19:49Z,42.805,6.029,13.2991,4.60019,2470.52,2021-9-16T05:21:10Z
2021-09-16T03:22:52Z,42.805,6.029,13.2994,4.60020,2470.483,2021-9-16T05:24:13Z
2021-09-16T03:25:55Z,42.805,6.029,13.2996,4.60016,2470.507,2021-9-16T05:27:16Z
2021-09-16T03:28:58Z,42.805,6.029,13.2993,4.60016,2470.507,2021-9-16T05:30:19Z
2021-09-16T03:32:01Z,42.805,6.029,13.2990,4.60019,2470.507,2021-9-16T05:33:23Z
2021-09-16T03:35:05Z,42.805,6.029,13.2993,4.60024,2470.483,2021-9-16T05:36:26Z
2021-09-16T03:38:08Z,42.805,6.029,13.2995,4.60028,2470.483,2021-9-16T05:39:29Z
2021-09-16T03:41:11Z,42.805,6.029,13.2993,4.60025,2470.474,2021-9-16T05:42:32Z
2021-09-16T03:44:14Z,42.805,6.029,13.2991,4.60016,2470.483,2021-9-16T05:45:35Z
2021-09-16T03:47:17Z,42.805,6.029,13.2994,4.60019,2470.507,2021-9-16T05:48:38Z
2021-09-16T03:50:20Z,42.805,6.029,13.2993,4.60025,2470.483,2021-9-16T05:51:41Z
2021-09-16T03:53:23Z,42.805,6.029,13.2991,4.60014,2470.507,2021-9-16T05:54:44Z
2021-09-16T03:56:26Z,42.805,6.029,13.2989,4.60016,2470.507,2021-9-16T05:57:48Z
2021-09-16T03:59:30Z,42.805,6.029,13.2996,4.60011,2470.507,2021-9-16T06:00:51Z
2021-09-16T04:02:33Z,42.805,6.029,13.2993,4.60016,2470.52,2021-9-16T06:03:54Z
2021-09-16T04:05:36Z,42.805,6.029,13.2990,4.60018,2470.483,2021-9-16T06:06:57Z
2021-09-16T04:08:39Z,42.805,6.029,13.2996,4.60019,2470.507,2021-9-16T06:10:00Z
2021-09-16T04:11:42Z,42.805,6.029,13.2996,4.60013,2470.474,2021-9-16T06:13:03Z
2021-09-16T04:14:45Z,42.805,6.029,13.2995,4.60025,2470.474,2021-9-16T06:16:06Z
2021-09-16T04:17:48Z,42.805,6.029,13.2992,4.60017,2470.474,2021-9-16T06:19:09Z
2021-09-16T04:20:51Z,42.805,6.029,13.2986,4.60016,2470.483,2021-9-16T06:22:12Z
2021-09-16T04:23:55Z,42.805,6.029,13.2986,4.60013,2470.46,2021-9-16T06:25:16Z
2021-09-16T04:26:58Z,42.805,6.029,13.2987,4.60011,2470.46,2021-9-16T06:28:19Z
2021-09-16T04:30:01Z,42.805,6.029,13.2991,4.60019,2470.483,2021-9-16T06:31:22Z
2021-09-16T04:33:04Z,42.805,6.029,13.2990,4.60017,2470.46,2021-9-16T06:34:25Z
2021-09-16T04:36:07Z,42.805,6.029,13.2991,4.60022,2470.474,2021-9-16T06:37:28Z
2021-09-16T04:39:10Z,42.805,6.029,13.2994,4.60023,2470.474,2021-9-16T06:40:31Z
2021-09-16T04:42:13Z,42.805,6.029,13.2990,4.60010,2470.497,2021-9-16T06:43:34Z
2021-09-16T04:45:16Z,42.805,6.029,13.2989,4.60014,2470.483,2021-9-16T06:46:37Z
2021-09-16T04:48:20Z,42.805,6.029,13.3003,4.60025,2470.483,2021-9-16T06:49:41Z
2021-09-16T04:51:23Z,42.805,6.029,13.2992,4.60017,2470.483,2021-9-16T06:52:44Z
2021-09-16T04:54:26Z,42.805,6.029,13.2988,4.60009,2470.483,2021-9-16T06:55:47Z
2021-09-16T04:57:29Z,42.805,6.029,13.2998,4.60017,2470.46,2021-9-16T06:58:50Z
2021-09-16T05:00:32Z,42.805,6.029,13.2996,4.60016,2470.46,2021-9-16T07:01:53Z
2021-09-16T05:03:35Z,42.805,6.029,13.2990,4.60014,2470.46,2021-9-16T07:04:56Z
2021-09-16T05:06:38Z,42.805,6.029,13.2994,4.60019,2470.46,2021-9-16T07:07:59Z
2021-09-16T05:09:41Z,42.805,6.029,13.2994,4.60021,2470.437,2021-9-16T07:11:02Z
2021-09-16T05:12:44Z,42.805,6.029,13.2996,4.60017,2470.437,2021-9-16T07:14:06Z
2021-09-16T05:15:48Z,42.805,6.029,13.2992,4.60009,2470.497,2021-9-16T07:17:09Z
2021-09-16T05:18:51Z,42.805,6.029,13.2990,4.60015,2470.474,2021-9-16T07:20:12Z
2021-09-16T05:21:54Z,42.805,6.029,13.2996,4.60020,2470.46,2021-9-16T07:23:15Z
2021-09-16T05:24:57Z,42.805,6.029,13.2991,4.60018,2470.483,2021-9-16T07:26:18Z
2021-09-16T05:28:00Z,42.805,6.029,13.2991,4.60016,2470.46,2021-9-16T07:29:21Z
2021-09-16T05:31:03Z,42.805,6.029,13.2993,4.60021,2470.46,2021-9-16T07:32:24Z
2021-09-16T05:34:06Z,42.805,6.029,13.2991,4.60024,2470.497,2021-9-16T07:35:27Z
2021-09-16T05:37:09Z,42.805,6.029,13.2990,4.60016,2470.46,2021-9-16T07:38:31Z
2021-09-16T05:40:13Z,42.805,6.029,13.2986,4.60015,2470.446,2021-9-16T07:41:34Z
2021-09-16T05:43:16Z,42.805,6.029,13.2993,4.60016,2470.46,2021-9-16T07:44:37Z
2021-09-16T05:46:19Z,42.805,6.029,13.2998,4.60028,2470.474,2021-9-16T07:47:40Z
2021-09-16T05:49:22Z,42.805,6.029,13.2994,4.60016,2470.46,2021-9-16T07:50:43Z
2021-09-16T05:52:25Z,42.805,6.029,13.2990,4.60014,2470.507,2021-9-16T07:53:46Z
2021-09-16T05:55:28Z,42.805,6.029,13.2993,4.60022,2470.46,2021-9-16T07:56:49Z
2021-09-16T05:58:31Z,42.805,6.029,13.2990,4.60016,2470.474,2021-9-16T07:59:52Z
2021-09-16T06:01:34Z,42.805,6.029,13.2989,4.60016,2470.497,2021-9-16T08:02:56Z
2021-09-16T06:04:38Z,42.805,6.029,13.2994,4.60019,2470.437,2021-9-16T08:05:59Z
2021-09-16T06:07:41Z,42.805,6.029,13.2989,4.60020,2470.497,2021-9-16T08:09:02Z
2021-09-16T06:10:44Z,42.805,6.029,13.2994,4.60024,2470.437,2021-9-16T08:12:05Z
2021-09-16T06:13:47Z,42.805,6.029,13.2993,4.60024,2470.497,2021-9-16T08:15:08Z
2021-09-16T06:16:50Z,42.805,6.029,13.2990,4.60020,2470.474,2021-9-16T08:18:11Z
2021-09-16T06:19:53Z,42.805,6.029,13.2987,4.60018,2470.46,2021-9-16T08:21:14Z
2021-09-16T06:22:56Z,42.805,6.029,13.2993,4.60023,2470.46,2021-9-16T08:24:17Z
2021-09-16T06:25:59Z,42.805,6.029,13.2991,4.60021,2470.474,2021-9-16T08:27:21Z
2021-09-16T06:29:03Z,42.805,6.029,13.2990,4.60016,2470.437,2021-9-16T08:30:24Z
2021-09-16T06:32:06Z,42.805,6.029,13.2993,4.60016,2470.399,2021-9-16T08:33:27Z
2021-09-16T06:35:09Z,42.805,6.029,13.2986,4.60011,2470.483,2021-9-16T08:36:30Z
2021-09-16T06:38:12Z,42.805,6.029,13.2998,4.60016,2470.46,2021-9-16T08:39:33Z
2021-09-16T06:41:15Z,42.805,6.029,13.2990,4.60017,2470.437,2021-9-16T08:42:36Z
2021-09-16T06:44:18Z,42.805,6.029,13.2998,4.60021,2470.45,2021-9-16T08:45:39Z
2021-09-16T06:47:21Z,42.805,6.029,13.2991,4.60017,2470.437,2021-9-16T08:48:42Z
2021-09-16T06:50:24Z,42.805,6.029,13.2991,4.60014,2470.45,2021-9-16T08:51:46Z
2021-09-16T06:53:28Z,42.805,6.029,13.2994,4.60012,2470.437,2021-9-16T08:54:49Z
2021-09-16T06:56:31Z,42.805,6.029,13.2990,4.60014,2470.46,2021-9-16T08:57:52Z
2021-09-16T06:59:34Z,42.805,6.029,13.2990,4.60018,2470.46,2021-9-16T09:00:55Z
2021-09-16T07:02:37Z,42.805,6.029,13.2997,4.60029,2470.474,2021-9-16T09:03:58Z
2021-09-16T07:05:40Z,42.805,6.029,13.2991,4.60022,2470.474,2021-9-16T09:07:01Z
2021-09-16T07:08:43Z,42.805,6.029,13.2990,4.60008,2470.474,2021-9-16T09:10:04Z
2021-09-16T07:11:46Z,42.805,6.029,13.3000,4.60021,2470.45,2021-9-16T09:13:07Z
2021-09-16T07:14:49Z,42.805,6.029,13.2999,4.60024,2470.46,2021-9-16T09:16:10Z
2021-09-16T07:17:53Z,42.805,6.029,13.2991,4.60016,2470.46,2021-9-16T09:19:14Z
2021-09-16T07:20:56Z,42.805,6.029,13.2997,4.60023,2470.427,2021-9-16T09:22:17Z
2021-09-16T07:23:59Z,42.805,6.029,13.3000,4.60029,2470.474,2021-9-16T09:25:20Z
2021-09-16T07:27:02Z,42.805,6.029,13.2990,4.60015,2470.427,2021-9-16T09:28:23Z
2021-09-16T07:30:05Z,42.805,6.029,13.2990,4.60022,2470.45,2021-9-16T09:31:26Z
2021-09-16T07:33:08Z,42.805,6.029,13.2996,4.60021,2470.46,2021-9-16T09:34:29Z
2021-09-16T07:36:11Z,42.805,6.029,13.2992,4.60014,2470.45,2021-9-16T09:37:32Z
2021-09-16T07:39:14Z,42.805,6.029,13.2993,4.60021,2470.437,2021-9-16T09:40:35Z
2021-09-16T07:42:18Z,42.805,6.029,13.2996,4.60023,2470.45,2021-9-16T09:43:39Z
2021-09-16T07:45:21Z,42.805,6.029,13.2987,4.60009,2470.413,2021-9-16T09:46:42Z
2021-09-16T07:48:24Z,42.805,6.029,13.2996,4.60014,2470.45,2021-9-16T09:49:45Z
2021-09-16T07:51:27Z,42.805,6.029,13.2991,4.60014,2470.437,2021-9-16T09:52:48Z
2021-09-16T07:54:30Z,42.805,6.029,13.2991,4.60009,2470.474,2021-9-16T09:55:51Z
2021-09-16T07:57:33Z,42.805,6.029,13.2990,4.60014,2470.437,2021-9-16T09:58:54Z
2021-09-16T08:00:36Z,42.805,6.029,13.2990,4.60014,2470.413,2021-9-16T10:01:57Z
2021-09-16T08:03:39Z,42.805,6.029,13.2990,4.60014,2470.413,2021-9-16T10:05:01Z
2021-09-16T08:06:43Z,42.805,6.029,13.2991,4.60014,2470.437,2021-9-16T10:08:04Z
2021-09-16T08:09:46Z,42.805,6.029,13.2993,4.60019,2470.437,2021-9-16T10:11:07Z
2021-09-16T08:12:49Z,42.805,6.029,13.2989,4.60021,2470.437,2021-9-16T10:14:10Z
2021-09-16T08:15:52Z,42.805,6.029,13.2995,4.60023,2470.413,2021-9-16T10:17:13Z
2021-09-16T08:18:55Z,42.805,6.029,13.2990,4.60022,2470.45,2021-9-16T10:20:16Z
2021-09-16T08:21:58Z,42.805,6.029,13.2996,4.60028,2470.427,2021-9-16T10:23:19Z
2021-09-16T08:25:01Z,42.805,6.029,13.2991,4.60017,2470.413,2021-9-16T10:26:22Z
2021-09-16T08:28:04Z,42.805,6.029,13.2997,4.60019,2470.46,2021-9-16T10:29:26Z
2021-09-16T08:31:08Z,42.805,6.029,13.2991,4.60013,2470.46,2021-9-16T10:32:29Z
2021-09-16T08:34:11Z,42.805,6.029,13.2997,4.60013,2470.427,2021-9-16T10:35:32Z
2021-09-16T08:37:14Z,42.805,6.029,13.2990,4.60012,2470.413,2021-9-16T10:38:35Z
2021-09-16T08:40:17Z,42.805,6.029,13.2991,4.60016,2470.413,2021-9-16T10:41:38Z
2021-09-16T08:43:20Z,42.805,6.029,13.2993,4.60016,2470.45,2021-9-16T10:44:41Z
2021-09-16T08:46:23Z,42.805,6.029,13.2992,4.60019,2470.427,2021-9-16T10:47:44Z
2021-09-16T08:49:26Z,42.805,6.029,13.2997,4.60011,2470.404,2021-9-16T10:50:47Z
2021-09-16T08:52:29Z,42.805,6.029,13.2994,4.60016,2470.413,2021-9-16T10:53:51Z
2021-09-16T08:55:33Z,42.805,6.029,13.2994,4.60019,2470.437,2021-9-16T10:56:54Z
2021-09-16T08:58:36Z,42.805,6.029,13.2990,4.60009,2470.427,2021-9-16T10:59:57Z
2021-09-16T09:01:39Z,42.805,6.029,13.2989,4.60013,2470.404,2021-9-16T11:03:00Z
2021-09-16T09:04:42Z,42.805,6.029,13.2995,4.60019,2470.404,2021-9-16T11:06:03Z
2021-09-16T09:07:45Z,42.805,6.029,13.2990,4.60016,2470.413,2021-9-16T11:09:06Z
2021-09-16T09:10:48Z,42.805,6.029,13.2991,4.60017,2470.427,2021-9-16T11:12:09Z
2021-09-16T09:13:51Z,42.805,6.029,13.2994,4.60025,2470.413,2021-9-16T11:15:12Z
2021-09-16T09:16:54Z,42.805,6.029,13.2996,4.60018,2470.427,2021-9-16T11:18:16Z
2021-09-16T09:19:58Z,42.805,6.029,13.2990,4.60016,2470.427,2021-9-16T11:21:19Z
2021-09-16T09:23:01Z,42.805,6.029,13.2992,4.60014,2470.376,2021-9-16T11:24:22Z
2021-09-16T09:26:04Z,42.805,6.029,13.2990,4.60019,2470.39,2021-9-16T11:27:25Z
2021-09-16T09:29:07Z,42.805,6.029,13.2993,4.60026,2470.39,2021-9-16T11:30:28Z
2021-09-16T09:32:10Z,42.805,6.029,13.2993,4.60014,2470.427,2021-9-16T11:33:31Z
2021-09-16T09:35:13Z,42.805,6.029,13.2990,4.60021,2470.39,2021-9-16T11:36:34Z
2021-09-16T09:38:16Z,42.805,6.029,13.2992,4.60014,2470.39,2021-9-16T11:39:37Z
2021-09-16T09:41:19Z,42.805,6.029,13.2991,4.60011,2470.427,2021-9-16T11:42:41Z
2021-09-16T09:44:23Z,42.805,6.029,13.2986,4.60011,2470.413,2021-9-16T11:45:44Z
2021-09-16T09:47:26Z,42.805,6.029,13.2989,4.60014,2470.413,2021-9-16T11:48:47Z
2021-09-16T09:50:29Z,42.805,6.029,13.2987,4.60019,2470.413,2021-9-16T11:51:50Z
2021-09-16T09:53:32Z,42.805,6.029,13.2994,4.60019,2470.404,2021-9-16T11:54:53Z
2021-09-16T09:56:35Z,42.805,6.029,13.2989,4.60011,2470.45,2021-9-16T11:57:56Z
2021-09-16T09:59:38Z,42.805,6.029,13.2997,4.60016,2470.39,2021-9-16T12:00:59Z
2021-09-16T10:02:41Z,42.805,6.029,13.2991,4.60019,2470.437,2021-9-16T12:04:02Z
2021-09-16T10:05:44Z,42.805,6.029,13.2990,4.60009,2470.413,2021-9-16T12:07:06Z
2021-09-16T10:08:48Z,42.805,6.029,13.2990,4.60019,2470.413,2021-9-16T12:10:09Z
2021-09-16T10:11:51Z,42.805,6.029,13.2993,4.60014,2470.427,2021-9-16T12:13:12Z
2021-09-16T10:14:54Z,42.805,6.029,13.2990,4.60011,2470.404,2021-9-16T12:16:15Z
2021-09-16T10:17:57Z,42.805,6.029,13.2990,4.60011,2470.413,2021-9-16T12:19:18Z
2021-09-16T10:21:00Z,42.805,6.029,13.2990,4.60014,2470.437,2021-9-16T12:22:21Z
2021-09-16T10:24:03Z,42.805,6.029,13.2990,4.60021,2470.437,2021-9-16T12:25:24Z
2021-09-16T10:27:06Z,42.805,6.029,13.2991,4.60021,2470.413,2021-9-16T12:28:27Z
2021-09-16T10:30:10Z,42.805,6.029,13.2996,4.60013,2470.39,2021-9-16T12:31:31Z
2021-09-16T10:33:13Z,42.805,6.029,13.2988,4.60011,2470.399,2021-9-16T12:34:34Z
2021-09-16T10:36:16Z,42.805,6.029,13.2987,4.60016,2470.413,2021-9-16T12:37:37Z
2021-09-16T10:39:19Z,42.805,6.029,13.2991,4.60013,2470.413,2021-9-16T12:40:40Z
2021-09-16T10:42:22Z,42.805,6.029,13.2992,4.60011,2470.413,2021-9-16T12:43:43Z
2021-09-16T10:45:25Z,42.805,6.029,13.2986,4.60017,2470.404,2021-9-16T12:46:46Z
2021-09-16T10:48:28Z,42.805,6.029,13.2992,4.60014,2470.404,2021-9-16T12:49:49Z
2021-09-16T10:51:31Z,42.805,6.029,13.2990,4.60021,2470.39,2021-9-16T12:52:53Z
2021-09-16T10:54:35Z,42.805,6.029,13.2991,4.60019,2470.45,2021-9-16T12:55:56Z
2021-09-16T10:57:38Z,42.805,6.029,13.2996,4.60006,2470.404,2021-9-16T12:58:59Z
2021-09-16T11:00:41Z,42.805,6.029,13.2988,4.60014,2470.437,2021-9-16T13:02:02Z
2021-09-16T11:03:44Z,42.805,6.029,13.2989,4.60011,2470.427,2021-9-16T13:05:05Z
2021-09-16T11:06:47Z,42.805,6.029,13.2993,4.60019,2470.427,2021-9-16T13:08:08Z
2021-09-16T11:09:50Z,42.805,6.029,13.2995,4.60016,2470.437,2021-9-16T13:11:11Z
2021-09-16T11:12:53Z,42.805,6.029,13.2996,4.60021,2470.427,2021-9-16T13:14:14Z
2021-09-16T11:15:56Z,42.805,6.029,13.2998,4.60021,2470.437,2021-9-16T13:17:18Z
2021-09-16T11:19:00Z,42.805,6.029,13.2995,4.60014,2470.413,2021-9-16T13:20:21Z
2021-09-16T11:22:03Z,42.805,6.029,13.2993,4.60015,2470.427,2021-9-16T13:23:24Z
2021-09-16T11:25:06Z,42.805,6.029,13.2989,4.60009,2470.437,2021-9-16T13:26:27Z
2021-09-16T11:28:09Z,42.805,6.029,13.2990,4.60014,2470.46,2021-9-16T13:29:30Z
2021-09-16T11:31:12Z,42.805,6.029,13.2991,4.60016,2470.427,2021-9-16T13:32:33Z
2021-09-16T11:34:15Z,42.805,6.029,13.2986,4.60009,2470.45,2021-9-16T13:35:36Z
2021-09-16T11:37:18Z,42.805,6.029,13.2990,4.60010,2470.474,2021-9-16T13:38:39Z
2021-09-16T11:40:22Z,42.805,6.029,13.2991,4.60008,2470.46,2021-9-16T13:41:43Z
2021-09-16T11:43:25Z,42.805,6.029,13.2994,4.60016,2470.437,2021-9-16T13:44:46Z
2021-09-16T11:46:28Z,42.805,6.029,13.2993,4.60022,2470.413,2021-9-16T13:47:49Z
2021-09-16T11:49:31Z,42.805,6.029,13.2992,4.60015,2470.413,2021-9-16T13:50:52Z
2021-09-16T11:52:34Z,42.805,6.029,13.2995,4.60009,2470.45,2021-9-16T13:53:55Z
2021-09-16T11:55:37Z,42.805,6.029,13.2992,4.60021,2470.413,2021-9-16T13:56:58Z
2021-09-16T11:58:40Z,42.805,6.029,13.2989,4.60010,2470.45,2021-9-16T14:00:01Z
2021-09-16T12:01:43Z,42.805,6.029,13.2986,4.60008,2470.45,2021-9-16T14:03:05Z
2021-09-16T12:04:47Z,42.805,6.029,13.2991,4.60011,2470.413,2021-9-16T14:06:08Z
2021-09-16T12:07:50Z,42.805,6.029,13.2996,4.60016,2470.423,2021-9-16T14:09:11Z
2021-09-16T12:10:53Z,42.805,6.029,13.2991,4.60011,2470.483,2021-9-16T14:12:14Z
2021-09-16T12:13:56Z,42.805,6.029,13.2991,4.60009,2470.437,2021-9-16T14:15:17Z
2021-09-16T12:16:59Z,42.805,6.029,13.2993,4.60010,2470.46,2021-9-16T14:18:20Z
2021-09-16T12:20:02Z,42.805,6.029,13.2993,4.60017,2470.46,2021-9-16T14:21:23Z
2021-09-16T12:23:05Z,42.805,6.029,13.2990,4.60014,2470.46,2021-9-16T14:24:26Z
2021-09-16T12:26:08Z,42.805,6.029,13.2995,4.60029,2470.46,2021-9-16T14:27:29Z
2021-09-16T12:29:12Z,42.805,6.029,13.2994,4.60019,2470.474,2021-9-16T14:30:33Z
2021-09-16T12:32:15Z,42.805,6.029,13.2991,4.60010,2470.437,2021-9-16T14:33:36Z
2021-09-16T12:35:18Z,42.805,6.029,13.2986,4.60014,2470.474,2021-9-16T14:36:39Z
2021-09-16T12:38:21Z,42.805,6.029,13.2985,4.60014,2470.474,2021-9-16T14:39:42Z
2021-09-16T12:41:24Z,42.805,6.029,13.2988,4.60015,2470.46,2021-9-16T14:42:45Z
2021-09-16T12:44:27Z,42.805,6.029,13.2990,4.60014,2470.474,2021-9-16T14:45:48Z
2021-09-16T12:47:30Z,42.805,6.029,13.2991,4.60019,2470.483,2021-9-16T14:48:51Z
2021-09-16T12:50:33Z,42.805,6.029,13.2993,4.60019,2470.46,2021-9-16T14:51:55Z
2021-09-16T12:53:37Z,42.805,6.029,13.2991,4.60016,2470.497,2021-9-16T14:54:58Z
2021-09-16T12:56:40Z,42.805,6.029,13.2992,4.60014,2470.507,2021-9-16T14:58:01Z
2021-09-16T12:59:43Z,42.805,6.029,13.2996,4.60021,2470.46,2021-9-16T15:01:04Z
2021-09-16T13:02:46Z,42.805,6.029,13.2990,4.60014,2470.483,2021-9-16T15:04:07Z
2021-09-16T13:05:49Z,42.805,6.029,13.2989,4.60019,2470.507,2021-9-16T15:07:10Z
2021-09-16T13:08:52Z,42.805,6.029,13.2986,4.60014,2470.483,2021-9-16T15:10:13Z
2021-09-16T13:11:55Z,42.805,6.029,13.2987,4.60013,2470.507,2021-9-16T15:13:16Z
2021-09-16T13:14:58Z,42.805,6.029,13.2991,4.60013,2470.507,2021-9-16T15:16:20Z
2021-09-16T13:18:02Z,42.805,6.029,13.2991,4.60029,2470.47,2021-9-16T15:19:23Z
2021-09-16T13:21:05Z,42.805,6.029,13.2993,4.60019,2470.52,2021-9-16T15:22:26Z
2021-09-16T13:24:08Z,42.805,6.029,13.2991,4.60011,2470.52,2021-9-16T15:25:29Z
2021-09-16T13:27:11Z,42.805,6.029,13.2991,4.60015,2470.52,2021-9-16T15:28:32Z
2021-09-16T13:30:14Z,42.805,6.029,13.2994,4.60019,2470.53,2021-9-16T15:31:35Z
2021-09-16T13:33:17Z,42.805,6.029,13.2991,4.60011,2470.52,2021-9-16T15:34:38Z
2021-09-16T13:36:20Z,42.805,6.029,13.2995,4.60009,2470.52,2021-9-16T15:37:41Z
2021-09-16T13:39:23Z,42.805,6.029,13.2993,4.60011,2470.483,2021-9-16T15:40:45Z
2021-09-16T13:42:27Z,42.805,6.029,13.2992,4.60015,2470.544,2021-9-16T15:43:48Z
2021-09-16T13:45:30Z,42.805,6.029,13.2996,4.60026,2470.483,2021-9-16T15:46:51Z
2021-09-16T13:48:33Z,42.805,6.029,13.2988,4.60016,2470.483,2021-9-16T15:49:54Z
2021-09-16T13:51:36Z,42.805,6.029,13.2991,4.60016,2470.52,2021-9-16T15:52:57Z
2021-09-16T13:54:39Z,42.805,6.029,13.2992,4.60019,2470.553,2021-9-16T15:56:00Z
2021-09-16T13:57:42Z,42.805,6.029,13.2990,4.60011,2470.544,2021-9-16T15:59:03Z
2021-09-16T14:00:45Z,42.805,6.029,13.2993,4.60019,2470.553,2021-9-16T16:02:06Z
2021-09-16T14:03:48Z,42.805,6.029,13.2996,4.60014,2470.553,2021-9-16T16:05:10Z
2021-09-16T14:06:52Z,42.805,6.029,13.2989,4.60008,2470.507,2021-9-16T16:08:13Z
2021-09-16T14:09:55Z,42.805,6.029,13.2993,4.60014,2470.553,2021-9-16T16:11:16Z
2021-09-16T14:12:58Z,42.805,6.029,13.2991,4.60011,2470.544,2021-9-16T16:14:19Z
2021-09-16T14:16:01Z,42.805,6.029,13.2993,4.60006,2470.553,2021-9-16T16:17:22Z
2021-09-16T14:19:04Z,42.805,6.029,13.2987,4.60014,2470.553,2021-9-16T16:20:25Z
2021-09-16T14:22:07Z,42.805,6.029,13.2991,4.60009,2470.553,2021-9-16T16:23:28Z
2021-09-16T14:25:10Z,42.805,6.029,13.2988,4.60010,2470.567,2021-9-16T16:26:31Z
2021-09-16T14:28:13Z,42.805,6.029,13.2990,4.60010,2470.567,2021-9-16T16:29:35Z
2021-09-16T14:31:17Z,42.805,6.029,13.2992,4.60018,2470.567,2021-9-16T16:32:38Z
2021-09-16T14:34:20Z,42.805,6.029,13.2988,4.60016,2470.567,2021-9-16T16:35:41Z
2021-09-16T14:37:23Z,42.805,6.029,13.2986,4.60014,2470.53,2021-9-16T16:38:44Z
2021-09-16T14:40:26Z,42.805,6.029,13.2990,4.60008,2470.553,2021-9-16T16:41:47Z
2021-09-16T14:43:29Z,42.805,6.029,13.2988,4.60014,2470.553,2021-9-16T16:44:50Z
2021-09-16T14:46:32Z,42.805,6.029,13.2991,4.60014,2470.553,2021-9-16T16:47:53Z
2021-09-16T14:49:35Z,42.805,6.029,13.2993,4.60014,2470.544,2021-9-16T16:50:56Z
2021-09-16T14:52:38Z,42.805,6.029,13.2996,4.60017,2470.577,2021-9-16T16:54:00Z
2021-09-16T14:55:42Z,42.805,6.029,13.2987,4.60014,2470.591,2021-9-16T16:57:03Z
2021-09-16T14:58:45Z,42.805,6.029,13.2990,4.60013,2470.577,2021-9-16T17:00:06Z
2021-09-16T15:01:48Z,42.805,6.029,13.2995,4.60015,2470.567,2021-9-16T17:03:09Z
2021-09-16T15:04:51Z,42.805,6.029,13.2986,4.60008,2470.577,2021-9-16T17:06:12Z
2021-09-16T15:07:54Z,42.805,6.029,13.2990,4.60011,2470.567,2021-9-16T17:09:15Z
2021-09-16T15:10:57Z,42.805,6.029,13.2994,4.60021,2470.591,2021-9-16T17:12:18Z